Regional Weather Roundup
Issued by NWS

Home | Current Version | Previous Version | Text Only | Print | Product List | Glossary On
Versions: 1 2 3 4 5 6 7 8 9 10 11 12 13 14 15 16 17 18 19 20 21 22 23 24 25 26 27 28 29 30 31 32 33 34 35 36 37 38 39 40 41 42 43 44 45 46 47 48 49 50
757
ASUS44 KMEG 142110
RWRTN
TENNESSEE HOURLY STATE WEATHER ROUNDUP
NATIONAL WEATHER SERVICE MEMPHIS TN
300 PM CST SUN FEB 14 2016

TNZ002-004-019-021-049-052-054-088>092-142200-
WEST TENNESSEE

CITY           SKY/WX    TMP DP  RH WIND       PRES   REMARKS
MEMPHIS INTL   CLOUDY    52  28  40 MISG        N/A
NWS MEMPHIS      N/A     51 N/A N/A MISG        N/A
JACKSON        CLOUDY    43  18  36 S8        29.98F
DYERSBURG      CLOUDY    36  23  60 NE5       30.01F WCI  32
UNION CITY     CLOUDY    28  25  86 NE5       30.01F WCI  23
PARIS          CLOUDY    28  19  69 E5        30.01F WCI  23
LEXINGTON      CLOUDY    37  14  38 S6        30.00F WCI  33
$$

TNZ008-025-027-028-033-062-065-066-142200-
NORTH MIDDLE TENNESSEE

CITY           SKY/WX    TMP DP  RH WIND       PRES   REMARKS
NASHVILLE      CLOUDY    33  17  51 SE9       30.07F WCI  25
CLARKSVILLE    MIX PCPN  29  20  69 SE8       30.04F WCI  21
SMYRNA         CLOUDY    33  21  61 SE9       30.08F WCI  25
COOKEVILLE     CLOUDY    30  18  59 S9        30.07F WCI  22
CROSSVILLE     CLOUDY    27  15  61 SE7       30.10F WCI  19
$$

TNZ061-075-076-078-094-096-097-142200-
SOUTH MIDDLE TENNESSEE

CITY           SKY/WX    TMP DP  RH WIND       PRES   REMARKS
FAYETTEVILLE   CLOUDY    39  14  35 SE13G18   30.08F WCI  32
TULLAHOMA      CLOUDY    36   9  32 SE10      30.08F WCI  28
WINCHESTER     CLOUDY    37  10  32 SE13      30.10F WCI  29
MCMINNVILLE    CLOUDY    34  14  44 SE7       30.08F WCI  28
COLUMBIA       CLOUDY    37  16  41 S9        30.03F WCI  31
SHELBYVILLE    CLOUDY    37  16  41 SE13      30.08F WCI  29
$$

TNZ017-018-042-046-047-142200-
NORTHEAST TENNESSEE

CITY           SKY/WX    TMP DP  RH WIND       PRES   REMARKS
TRI CITIES     FLURRIES  26  12  55 E5        30.23F WCI  20
$$

TNZ012-013-036-069-073-074-142200-
CENTRAL EAST TENNESSEE

CITY           SKY/WX    TMP DP  RH WIND       PRES   REMARKS
KNOXVILLE      CLOUDY    25  11  55 E7        30.22F WCI  17
OAK RIDGE      CLOUDY    26  12  55 E5        30.24F WCI  20
GATLINBURG     CLOUDY    23  12  63 E3        30.22F
MORRISTOWN     FOG       23  21  93 E6        30.20F VSB 1   WCI  16
$$

TNZ083-085-099-142200-
SOUTHEAST TENNESSEE

CITY           SKY/WX    TMP DP  RH WIND       PRES   REMARKS
CHATTANOOGA    CLOUDY    34  14  43 N9        30.19F WCI  27
$$

SKY/WX REPORTED AS FAIR MEANS FEW OR NO CLOUDS BELOW
12 THOUSAND FEET.





USA.gov is the U.S. government's official web portal to all federal, state and local government web resources and services.